RH
31 38 45 46 45 43 40 36 33 28 22 14 10 8 6 6 6 5 6 5 6 25 50 44 39 40 40 44 82 68 61 63 82 81 85 86 86 89 84 62 91 90 98 94 94 97 94 78 70 65 72 63 71 70
50 51 50 49 46 44 43 40 34 25 16 11 9 8 8 7 7 7 8 9 11 19 52 48 44 42 42 50 51 51 65 65 72 90 94 95 92 96 86 77 60 66 74 77 77 72 59 67 73 71 69 71 81 76
52 50 48 48 49 49 48 39 26 20 16 11 10 10 10 9 8 8 8 12 15 26 70 78 58 61 55 47 43 49 55 62 57 69 82 97 79 91 77 84 64 48 64 84 70 74 80 77 69 69 75 92 93 93
58 59 57 57 55 53 51 49 43 28 16 14 11 11 11 10 9 9 11 17 19 36 70 75 64 62 56 59 61 57 67 61 58 62 81 99 93 69 89 80 85 64 69 67 75 83 79 80 71 86 92 93 89 86
46 44 47 49 47 45 44 49 48 43 30 19 14 12 12 12 15 20 25 25 26 31 65 73 61 63 61 65 81 85 83 77 77 79 98 100 84 88 93 94 100 90 85 90 87 92 89 81 90 93 91 90 93 97
33 34 42 48 52 56 54 51 51 46 38 24 19 16 14 14 20 28 37 34 36 34 35 95 84 75 73 71 80 91 91 96 84 81 82 84 89 82 100 100 88 97 90 89 84 85 84 94 100 93 88 90 94 93
32 34 43 58 67 70 67 63 59 48 42 36 28 23 20 20 31 36 47 43 34 30 42 91 92 64 84 84 100 99 97 99 86 82 94 89 88 85 99 100 99 88 81 87 94 85 94 93 97 95 93 92 94 94
28 32 48 73 84 95 100 98 83 74 67 53 39 29 29 45 47 62 58 46 44 58 76 96 95 74 78 98 99 99 96 90 94 89 97 93 97 97 100 99 88 82 94 96 92 96 100 100 98 93 96 95 92 88
37 54 78 93 99 98 92 96 99 91 79 54 42 35 48 59 61 70 55 71 82 74 74 90 82 87 76 96 92 90 89 98 92 98 97 90 99 98 91 98 89 82 86 84 92 90 93 91 92 89 89 86 87 92
81 92 96 98 93 92 90 98 98 89 82 62 50 47 95 77 90 73 83 76 75 76 83 91 72 89 77 89 94 92 95 98 99 92 89 98 97 100 98 95 88 82 80 80 84 82 83 90 86 91 93 96 95 92
97 97 85 81 81 87 96 92 94 93 78 73 68 68 83 97 85 73 80 88 81 94 89 80 74 86 79 91 95 94 98 96 94 88 95 99 100 100 99 97 98 97 96 91 89 85 85 86 87 88 89 92 92 90
94 85 85 89 88 91 94 87 85 86 85 80 78 92 99 93 81 78 98 87 92 90 80 83 79 74 92 88 85 91 97 98 94 92 97 100 98 99 100 100 100 99 98 96 97 96 92 92 93 93 88 82 79 80
100 87 91 94 92 93 90 90 88 88 82 74 98 100 99 81 67 65 62 82 91 73 71 84 88 77 87 88 80 98 98 95 93 98 97 98 97 100 98 95 95 96 94 92 89 82 74 78 84 85 67 66 80 77
91 87 98 99 99 95 89 91 94 96 86 78 98 99 89 96 94 97 99 98 84 88 83 82 73 80 90 98 97 97 92 95 99 100 97 99 78 83 90 96 98 95 90 86 75 57 40 39 38 39 60 81 88 93
88 84 94 92 90 86 88 87 96 100 90 82 92 100 98 93 86 74 77 93 83 91 75 78 83 87 98 89 98 96 97 98 93 95 96 84 88 95 97 94 92 95 94 85 55 41 40 40 39 37 40 45 53 92
83 73 91 100 93 74 84 98 98 100 95 89 90 97 94 95 94 87 72 83 97 96 81 86 100 99 99 99 97 97 97 97 95 97 94 94 92 92 88 90 92 92 85 66 43 44 44 42 45 46 46 52 64 88
61 59 47 41 68 61 50 95 98 99 100 95 96 100 98 97 97 97 98 98 97 94 97 97 95 84 94 100 100 97 97 95 92 91 84 80 79 82 86 88 88 81 71 49 45 46 46 49 52 54 59 77 90 98
73 72 51 43 88 42 81 97 99 100 93 90 97 97 97 96 97 99 97 96 95 96 97 96 97 100 99 100 95 95 90 80 76 78 74 73 78 81 80 78 72 67 52 46 48 47 51 54 56 61 70 72 73 74
75 74 53 40 54 98 100 97 99 91 97 97 98 98 97 99 100 100 99 97 96 96 96 96 100 98 92 90 92 87 83 75 60 53 59 61 58 58 58 61 65 63 49 50 48 53 62 66 69 63 61 66 72 79
72 62 41 54 66 99 97 96 98 95 97 96 97 100 100 99 100 100 100 99 97 95 97 98 96 89 85 81 67 48 38 37 35 34 34 38 49 56 59 63 60 61 52 52 52 74 69 77 68 69 71 88 100 92
61 41 37 39 47 72 98 92 96 94 92 94 100 94 91 100 98 98 97 97 99 97 97 95 96 90 82 68 41 39 38 38 35 34 39 43 62 70 70 70 69 64 58 54 56 56 76 65 66 71 72 75 82 82
42 43 52 50 57 95 96 95 95 95 92 97 97 96 92 93 100 98 71 64 89 92 89 75 69 71 74 47 40 44 47 44 42 41 48 55 54 61 61 66 80 70 71 66 62 57 56 57 60 66 75 79 96 91
58 66 55 63 82 85 83 84 82 85 88 85 70 79 78 72 74 52 54 57 68 65 59 56 54 50 46 45 43 47 58 52 44 42 40 41 42 44 48 51 59 66 63 54 60 60 56 53 56 78 78 86 91 88
59 51 63 85 87 81 74 66 54 51 58 67 90 70 70 64 53 76 82 79 64 71 59 50 55 58 58 61 59 56 78 89 51 38 41 42 42 44 47 48 50 52 52 54 55 56 59 62 66 73 80 89 97 100
35 44 51 51 44 48 68 60 43 44 49 81 74 74 76 68 89 94 88 64 78 67 52 43 40 40 42 40 41 58 86 98 73 45 41 45 45 47 50 52 52 54 62 77 85 82 73 71 73 79 85 90 94 98
34 56 40 40 38 44 61 43 57 52 86 78 83 77 77 81 77 68 80 79 79 59 41 35 35 35 38 48 54 75 99 100 99 75 55 51 46 47 50 56 66 73 78 88 92 97 99 100 100 100 100 100 100 100
19 34 36 30 29 38 41 59 61 74 79 74 83 85 94 89 81 59 39 74 54 43 39 42 51 60 62 66 72 77 84 88 81 63 56 58 65 72 78 83 90 89 100 100 100 100 100 100 100 100 100 98 95 93
23 25 40 34 35 43 49 70 85 78 83 61 84 98 94 94 89 59 68 58 49 44 52 61 61 56 59 63 65 68 71 73 75 75 72 71 73 78 85 91 95 99 100 100 100 100 100 98 97 94 91 87 88 94
32 32 47 38 41 47 45 49 46 56 54 66 88 94 65 67 60 59 53 54 51 53 59 54 57 62 69 71 74 79 80 82 84 85 86 82 79 80 96 97 100 100 100 100 100 100 100 100 100 100 100 100 100 94
37 52 39 51 54 59 41 40 47 50 51 54 58 59 59 54 56 56 58 52 46 50 54 54 55 60 71 81 83 82 88 89 93 97 100 98 95 93 95 98 99 98 100 100 98 95 95 98 98 97 98 99 100 100
54 45 46 50 49 41 44 48 48 53 66 68 69 75 75 73 48 34 40 39 40 48 49 51 56 59 63 70 96 97 92 92 100 100 100 100 100 98 98 99 95 97 100 98 97 99 98 99 100 98 93 92 95 100
56 51 54 68 45 54 55 58 60 70 84 94 84 87 79 70 50 36 28 36 41 44 40 43 47 50 56 62 96 100 100 100 100 100 100 100 98 98 98 91 100 100 98 85 81 89 100 100 97 97 100 97 97 97
64 69 68 65 59 55 62 61 72 86 94 95 90 74 70 68 56 38 28 28 30 33 37 43 52 58 66 82 92 97 100 100 98 100 100 100 100 100 100 100 98 88 87 99 100 100 100 100 100 100 100 100 100 100
Wind_Speed
15 14 15 15 16 17 18 18 18 18 18 17 17 18 18 17 16 14 12 9 4 4 5 3 4 3 3 2 4 5 3 1 3 2 3 3 2 3 2 4 6 6 6 4 2 2 7 1 3 1 2 3 7 9
17 16 16 17 17 19 19 19 19 18 17 18 19 20 20 19 18 16 11 9 4 2 5 4 4 3 4 5 4 5 1 2 4 3 1 2 1 2 3 3 1 2 6 4 8 4 4 11 18 15 14 9 12 14
17 18 18 19 19 20 22 22 21 19 19 20 21 21 21 20 19 17 12 8 4 4 6 4 2 4 4 5 7 5 5 4 5 4 5 2 2 3 2 5 2 2 2 2 4 1 6 13 11 17 17 13 12 12
18 18 19 19 20 20 20 21 21 20 19 19 19 20 20 21 20 17 11 6 3 4 4 2 4 3 3 6 8 8 5 6 8 4 2 3 2 5 3 3 3 4 2 1 3 2 11 9 16 15 15 13 15 17
19 20 21 22 23 23 22 21 21 21 21 20 21 20 20 19 16 10 5 6 6 2 3 3 3 2 3 5 7 7 7 7 5 3 2 2 3 1 3 1 3 4 5 4 4 5 3 3 14 10 13 15 15 16
20 22 23 24 26 27 26 23 22 21 20 19 20 21 20 20 15 7 3 4 5 7 1 1 3 3 2 5 8 10 9 6 3 2 3 3 3 2 2 3 2 7 6 4 2 6 9 7 5 9 13 12 13 14
21 22 23 24 26 29 28 25 23 22 21 22 22 22 22 21 12 2 1 6 9 10 4 3 1 3 5 4 3 3 5 3 4 3 4 3 5 5 2 3 7 8 4 4 5 6 4 5 6 11 9 8 8 8
22 24 24 25 27 27 26 26 24 23 21 22 23 23 22 16 9 3 7 15 9 3 3 3 2 2 6 3 3 3 3 3 5 3 2 4 6 3 4 3 7 5 6 5 0 2 1 4 5 7 8 7 8 9
25 26 22 22 24 26 30 27 23 21 22 23 22 20 13 2 2 9 18 3 3 2 4 3 4 3 7 3 3 3 1 1 2 4 4 6 2 4 4 10 9 6 7 3 3 1 0 3 6 7 8 9 11 12
22 20 20 21 23 27 30 23 21 21 24 22 15 6 3 2 15 18 2 1 1 1 2 2 3 1 5 5 3 3 4 2 2 4 5 2 3 5 5 7 6 4 3 4 6 5 1 4 6 7 8 9 9 10
19 20 21 22 23 24 25 20 21 24 22 17 10 5 9 18 7 1 1 2 3 3 1 2 3 3 2 2 3 4 2 2 1 4 3 3 3 3 8 6 6 4 3 2 1 1 2 4 6 7 7 8 9 10
18 21 24 24 23 24 22 21 23 23 22 23 19 19 9 3 1 4 1 3 3 2 2 2 3 2 2 1 1 2 2 2 6 2 1 3 2 9 10 7 5 3 2 2 2 3 4 4 5 6 8 9 10 12
18 23 25 27 24 16 17 20 22 23 26 16 5 3 3 2 5 4 2 4 2 3 4 3 0 1 2 2 2 0 2 4 2 1 4 3 5 9 8 7 6 5 4 4 4 5 6 7 8 9 11 12 12 12
20 22 22 21 13 15 18 21 26 24 14 5 4 6 3 5 1 3 3 3 1 3 5 3 2 4 4 1 3 2 4 2 1 2 4 3 8 9 9 9 8 7 7 7 7 7 8 9 10 11 12 14 14 14
22 22 20 19 19 22 27 28 19 18 5 3 2 4 2 2 5 4 2 1 1 3 3 1 1 0 2 2 2 1 3 3 4 3 2 3 6 8 9 9 9 9 9 10 10 9 10 12 13 14 13 13 15 13
23 23 14 16 24 28 21 17 17 7 3 3 5 2 3 2 3 3 3 3 3 2 1 1 2 3 3 3 1 6 4 5 2 2 3 4 7 9 10 10 10 11 12 11 11 11 13 14 15 14 13 11 11 12
22 19 23 24 22 20 15 9 4 2 3 3 3 7 9 10 6 5 3 2 3 2 1 3 2 8 1 2 3 2 2 2 4 5 5 6 8 9 10 11 13 14 13 12 12 12 14 14 13 13 11 9 10 12
25 27 27 23 18 18 6 2 2 2 4 6 4 2 2 4 6 5 4 5 3 3 2 3 0 2 4 4 3 2 2 2 3 6 8 9 10 10 12 14 14 13 12 12 11 12 12 12 12 12 11 10 13 13
25 27 27 20 13 5 3 1 2 3 3 2 3 6 5 6 8 9 9 9 7 7 3 2 1 3 3 2 2 3 2 2 5 9 11 11 12 13 13 14 13 12 12 10 10 10 10 10 11 13 13 12 12 8
26 25 16 12 6 1 2 2 3 4 4 4 5 4 5 6 9 10 9 8 5 3 3 2 3 1 2 3 2 1 3 6 9 13 15 12 10 11 12 13 12 12 13 11 10 10 10 11 10 12 13 13 14 17
26 13 12 8 3 5 1 2 3 3 5 4 5 6 4 6 6 5 5 5 4 4 2 3 6 9 8 2 2 1 4 9 12 14 14 16 13 12 12 12 13 14 16 15 15 14 13 15 14 15 18 16 15 16
15 15 12 6 2 2 2 3 3 6 5 5 6 4 4 4 3 2 7 2 1 3 3 8 12 9 4 4 4 5 7 10 13 13 11 12 14 15 16 15 15 16 16 17 18 20 20 19 19 21 20 21 20 19
17 9 3 1 1 1 2 3 2 2 1 3 5 3 2 2 3 7 1 1 3 6 9 10 10 8 8 10 10 8 10 11 13 12 11 11 11 12 13 13 14 17 19 18 18 20 22 21 21 21 23 22 20 20
7 1 1 1 0 1 2 2 3 3 3 3 3 5 3 5 6 1 1 2 6 15 15 14 12 13 15 16 18 12 11 12 13 12 10 12 10 9 12 14 14 15 16 17 18 19 19 19 18 19 19 19 20 21
1 2 2 2 3 2 5 6 5 3 2 2 1 4 3 4 3 2 2 2 8 17 19 19 18 18 19 21 18 15 11 10 10 13 9 12 14 16 18 19 22 21 20 22 21 20 20 20 21 21 22 23 24 25
4 3 2 2 3 1 2 2 1 2 1 3 3 3 3 3 3 4 3 2 11 18 19 19 19 19 17 13 13 12 6 8 14 17 15 17 20 22 25 27 31 33 27 25 26 27 27 26 27 28 28 27 24 24
2 1 2 2 5 4 4 5 4 2 1 3 3 3 2 2 4 4 5 4 13 14 13 13 13 15 16 15 14 12 8 13 18 21 21 23 26 27 27 27 29 26 22 20 20 22 24 25 25 26 27 27 26 25
2 2 1 10 4 4 3 2 1 3 3 2 1 1 4 6 4 3 4 12 12 4 6 10 13 14 14 14 15 16 17 19 21 24 27 27 23 23 21 20 21 19 19 20 21 23 25 26 26 24 23 23 24 22
1 4 9 3 3 5 4 5 3 2 2 3 3 3 5 7 12 12 23 18 6 3 3 8 14 17 19 22 21 22 23 26 29 31 30 31 31 26 23 23 22 22 19 18 17 18 20 22 26 29 28 25 25 27
2 7 3 2 1 3 3 5 6 10 13 14 11 14 20 25 20 13 11 10 11 8 6 7 6 12 19 27 33 33 30 28 24 25 29 33 32 28 27 23 21 21 21 19 20 21 20 20 21 20 20 22 24 24
6 3 3 4 5 5 9 14 19 20 16 10 12 15 18 12 10 9 9 12 13 13 13 15 16 16 17 25 33 37 42 37 30 27 26 27 28 28 26 27 25 21 23 19 24 25 21 19 20 22 23 24 24 25
4 3 2 2 4 8 13 7 8 6 6 4 4 5 5 5 5 5 3 9 16 19 17 18 21 22 21 28 37 40 39 35 30 28 29 27 28 31 31 27 26 20 28 24 20 23 25 21 21 24 23 24 23 21
4 4 4 4 4 3 5 10 4 5 5 4 3 3 4 5 7 5 6 6 8 11 13 17 20 22 26 38 44 42 37 32 31 31 29 28 26 24 25 27 29 21 24 27 22 20 25 25 24 25 26 26 25 24
Wind_Direction
70 63 54 45 38 32 26 22 18 19 21 22 22 19 19 20 21 20 22 25 36 115 128 142 161 148 141 167 146 148 73 307 47 90 146 232 138 246 46 168 176 162 155 199 179 221 273 79 68 126 242 43 54 33
59 51 45 37 30 24 19 13 11 12 13 13 14 15 12 12 11 12 12 12 35 113 104 109 129 151 174 162 152 164 190 146 165 92 21 90 254 54 158 264 358 322 187 191 178 219 25 72 82 52 43 31 9 351
47 38 31 25 20 15 11 8 6 6 7 6 6 5 7 5 4 4 7 10 26 136 117 148 137 168 178 197 199 175 196 193 178 133 149 166 212 120 189 242 200 289 114 185 63 40 20 67 50 16 9 5 345 334
34 28 21 14 8 4 360 358 360 359 357 356 357 359 358 357 355 355 1 18 80 117 113 148 166 168 193 207 210 218 210 167 152 145 108 134 169 184 228 204 170 207 88 168 263 114 146 64 13 348 344 335 330 325
29 23 17 13 9 3 357 353 353 352 350 347 346 348 349 349 349 347 9 69 80 70 149 148 177 236 216 206 196 180 174 177 153 134 96 221 230 87 348 65 258 193 184 165 227 174 206 301 335 326 338 339 337 332
15 10 6 4 1 359 358 354 349 344 342 341 339 337 338 338 341 332 202 96 50 49 19 116 167 180 175 149 148 157 151 128 131 158 200 227 179 159 115 233 206 177 174 194 196 241 292 300 235 324 339 346 335 340
7 2 358 355 352 349 349 348 346 342 342 340 337 334 331 330 337 315 49 318 331 319 197 94 181 166 158 144 99 101 128 145 187 229 225 218 188 200 194 230 158 183 205 219 256 298 216 309 326 337 344 347 351 355
354 354 352 350 349 355 354 347 343 342 342 339 334 329 322 319 318 283 325 331 323 188 172 110 267 182 176 156 120 153 184 185 212 233 223 184 161 201 253 146 153 163 166 156 315 28 147 310 313 343 352 357 356 6
345 344 347 352 355 351 343 343 339 340 339 338 330 316 304 293 22 332 323 299 191 185 162 136 140 220 169 149 133 146 208 272 211 208 241 157 230 221 247 164 165 161 172 170 174 166 351 354 357 345 350 360 6 7
350 0 359 349 342 340 341 350 348 342 341 339 335 318 338 349 326 330 342 175 139 118 124 119 133 152 165 167 179 167 183 229 245 240 172 198 248 123 133 143 155 160 184 197 203 204 292 351 355 349 355 356 355 353
357 350 343 335 333 335 343 346 345 343 347 356 334 293 298 313 315 359 53 52 3 28 59 79 82 132 179 119 212 204 204 186 246 262 144 257 270 190 168 175 173 180 186 208 208 227 318 324 323 318 325 334 337 336
340 337 340 334 333 334 337 338 335 338 340 326 301 287 297 293 319 79 286 344 57 206 105 94 103 102 143 201 121 213 198 42 244 188 101 269 260 161 175 174 169 179 208 234 245 281 287 289 299 316 324 326 327 322
327 333 333 324 326 332 332 335 333 334 334 330 332 290 318 332 27 90 338 321 31 165 149 154 19 152 133 146 212 166 181 233 124 82 228 229 170 178 188 194 206 222 236 258 283 285 285 282 290 303 313 319 316 321
326 329 330 334 332 323 316 320 317 320 339 308 341 315 112 330 292 188 194 203 123 146 147 153 161 200 188 130 188 148 241 122 293 245 238 250 200 192 205 220 230 247 266 279 289 288 290 293 298 300 295 296 303 313
323 328 327 320 315 314 311 314 312 315 315 272 279 257 325 319 281 301 309 258 126 172 180 161 265 323 314 223 212 36 327 249 211 226 219 204 200 217 226 236 245 258 278 289 289 287 292 299 301 298 294 286 284 292
328 331 328 302 305 309 317 308 306 298 232 230 238 273 272 331 330 327 274 262 276 205 219 179 94 45 272 179 59 227 162 226 194 193 211 236 246 247 248 252 262 272 283 287 287 296 303 305 304 303 303 297 279 287
338 338 326 322 321 321 322 302 285 233 241 232 253 247 267 281 290 292 313 258 250 177 238 120 100 224 355 343 277 198 206 172 185 227 257 273 279 274 268 269 274 281 284 283 289 298 303 305 304 304 302 289 287 288
334 333 332 327 323 326 328 242 266 250 251 246 241 254 276 294 285 282 274 283 284 215 234 223 193 126 211 189 257 214 159 216 268 277 287 287 285 283 280 281 281 278 274 277 291 301 308 313 317 315 310 302 289 290
329 325 324 318 320 319 317 299 272 281 279 291 258 274 277 276 278 277 278 283 270 242 254 234 70 211 242 192 144 169 240 288 312 305 298 299 299 298 298 294 285 275 271 278 293 304 313 328 333 329 323 316 315 289
327 326 324 327 325 311 299 279 269 283 295 302 290 283 292 269 276 286 290 286 268 231 210 214 228 282 343 331 314 81 17 332 316 309 312 314 309 306 308 304 293 276 270 276 291 297 303 315 328 331 332 324 310 301
331 335 335 331 285 221 246 280 266 274 290 293 298 305 275 276 277 286 301 317 210 218 274 309 314 308 298 262 157 323 337 342 336 321 316 311 312 306 307 308 302 282 274 276 280 288 284 294 309 310 315 317 317 311
328 327 330 310 227 182 256 256 283 289 280 288 307 292 288 297 301 324 315 261 304 19 322 322 318 317 252 215 261 302 329 331 326 321 317 307 298 299 304 307 297 294 291 286 282 284 290 296 301 301 303 312 310 305
325 327 322 265 203 225 263 295 284 270 307 305 311 318 279 304 318 326 311 34 36 358 2 18 11 342 271 258 270 298 325 326 322 316 321 316 310 310 308 308 301 298 299 301 297 293 291 295 296 293 296 298 298 300
333 324 347 28 317 268 294 252 270 289 285 1 35 305 326 328 329 18 238 60 68 26 15 1 337 317 306 297 294 291 305 317 319 316 321 313 319 332 320 324 316 309 305 304 299 297 296 297 298 296 297 296 299 300
329 4 1 37 16 341 18 339 333 20 284 279 344 311 329 328 25 15 226 169 12 5 352 344 336 328 317 315 310 309 279 296 318 321 325 310 310 311 311 310 305 303 304 300 300 298 294 294 294 295 295 295 297 298
61 15 43 16 346 38 223 305 265 258 258 303 245 316 337 57 33 256 233 163 354 349 344 343 342 342 348 342 330 339 292 301 323 320 315 310 306 306 307 307 308 309 313 304 296 293 294 295 295 294 293 293 292 288
43 321 51 13 303 290 276 256 262 216 260 222 266 1 48 346 262 249 196 251 337 348 351 4 19 26 23 20 10 357 314 303 310 311 309 306 306 308 306 304 305 312 310 306 304 300 298 298 299 300 300 299 298 298
72 54 59 321 287 255 252 285 210 220 236 198 201 283 202 206 243 251 238 331 337 343 30 39 28 12 5 359 352 344 335 324 316 310 307 307 311 314 314 306 305 308 303 304 303 302 298 297 299 301 302 301 304 304
326 340 331 289 277 247 235 218 252 232 224 216 194 254 253 263 288 286 296 301 245 199 100 51 37 29 20 11 359 348 339 331 327 325 324 319 320 324 329 325 318 314 311 307 302 297 293 292 297 301 302 300 296 293
287 328 296 278 224 255 223 244 266 284 284 273 265 272 282 291 301 295 276 226 209 219 225 256 302 345 355 355 352 347 345 337 325 317 315 314 313 316 319 321 320 317 311 306 306 305 301 299 297 294 289 290 295 297
288 287 251 243 258 259 274 291 299 296 288 278 276 264 277 294 301 294 255 222 222 237 251 258 266 283 306 330 340 340 337 338 330 322 314 310 310 313 317 317 317 315 312 303 304 305 304 303 300 298 299 299 301 299
274 228 278 281 267 284 308 312 300 284 285 282 271 261 287 278 272 265 273 236 242 251 274 273 276 290 300 314 323 329 328 325 325 325 316 314 314 314 313 315 318 310 306 308 303 301 305 303 297 299 301 303 302 302
271 269 252 273 286 301 319 332 293 307 266 270 270 273 253 253 256 247 258 268 281 286 302 304 301 303 307 312 317 321 322 320 323 325 314 305 301 303 303 298 299 303 303 305 309 306 305 307 306 305 306 304 302 300